Location: Unspecified
(52.4292°N, 19.3359°E)
Time: 09:06:06
(UTC+02:00)

Tiros 1 - Pass Details

Date: 19 May 2024
Orbit: 624 x 657 km, 48.4° (Epoch: 22 June)

Event Time Altitude Azimuth Distance (km) Brightness Sun altitude
Rises 17:45:32 0° 273° (W) 2,982 12.0 23.8°
Reaches altitude 10° 17:47:59 10° 266° (W) 2,067 11.7 23.4°
Maximum altitude 17:52:27 42° 197° (SSW) 935 8.4 22.8°
Drops below altitude 10° 17:56:55 10° 127° (SE) 2,050 9.3 22.1°
Sets 17:59:19 0° 120° (ESE) 2,953 10.0 21.7°
